CW6532 Weather Reports


Display with metric or nautical units.
time (UTC)temp
F
wind
direction
speed
MPH
gust
MPH
rain 1hr
in
rain 24hr
in
rain mn
in
humidity
%
barometer
mb
20260903040328 83 175 4.0 7.0 0.00 0.00 0.00 52 1024.8
20260903035341 82 182 4.0 6.0 0.00 0.00 0.00 52 1024.8
20260903034335 83 171 4.0 8.0 0.00 0.00 0.00 51 1024.8
20260903033350 83 190 6.0 8.0 0.00 0.00 0.00 52 1024.8
20260903032341 83 189 7.0 9.0 0.00 0.00 0.00 50 1024.7
20260903031336 83 176 7.0 10.0 0.00 0.00 0.00 50 1024.5
20260903030326 83 192 4.0 6.0 0.00 0.00 0.00 48 1024.5
20260903025405 84 186 3.0 5.0 0.00 0.00 0.00 47 1024.2
20260903024339 84 186 3.0 5.0 0.00 0.00 0.00 47 1024.1
20260903023332 84 192 2.0 6.0 0.00 0.00 0.00 47 1024.2
20260903022343 84 212 3.0 5.0 0.00 0.00 0.00 46 1023.9
20260903021334 84 212 3.0 5.0 0.00 0.00 0.00 45 1023.8
20260903020342 85 211 4.0 5.0 0.00 0.00 0.00 44 1023.9
20260903015336 85 207 4.0 7.0 0.00 0.00 0.00 43 1023.9
20260903014351 86 237 5.0 8.0 0.00 0.00 0.00 43 1023.9
20260903013410 86 255 3.0 9.0 0.00 0.00 0.00 45 1023.5
20260903012341 87 240 4.0 12.0 0.00 0.00 0.00 45 1023.6
20260903011403 88 259 4.0 10.0 0.00 0.00 0.00 43 1023.5
20260903010349 87 275 5.0 10.0 0.00 0.00 0.00 43 1023.5
20260903005339 88 144 7.0 10.0 0.00 0.00 0.00 43 1023.4
20260903004354 88 175 7.0 11.0 0.00 0.00 0.00 43 1023.5
20260903003348 87 170 8.0 11.0 0.00 0.00 0.00 43 1023.5
20260903002339 88 202 8.0 12.0 0.00 0.00 0.00 41 1023.4
20260903001335 88 216 7.0 10.0 0.00 0.00 0.00 41 1023.6
20260903000326 88 196 6.0 10.0 0.00 0.00 0.00 42 1023.6
20260902235340 87 183 6.0 13.0 0.00 0.00 0.00 43 1023.6
20260902234334 88 205 6.0 10.0 0.00 0.00 0.00 43 1023.5
20260902233332 88 225 6.0 11.0 0.00 0.00 0.00 42 1023.6
20260902232326 88 214 7.0 12.0 0.00 0.00 0.00 42 1023.6
20260902231326 88 209 7.0 13.0 0.00 0.00 0.00 43 1023.9
20260902230337 87 217 7.0 12.0 0.00 0.00 0.00 45 1023.9
20260902225335 87 186 7.0 12.0 0.00 0.00 0.00 48 1024.1
20260902224331 86 151 6.0 11.0 0.00 0.00 0.00 50 1024.2
20260902223410 86 205 9.0 15.0 0.00 0.00 0.00 49 1024.3
20260902222358 84 228 9.0 11.0 0.00 0.00 0.00 52 1024.5
20260902221330 84 160 7.0 9.0 0.00 0.00 0.00 52 1024.4
20260902220341 85 177 7.0 15.0 0.00 0.00 0.00 49 1024.6
20260902215334 86 240 8.0 12.0 0.00 0.00 0.00 48 1024.7
20260902214330 88 241 13.0 19.0 0.00 0.00 0.00 45 1024.7
20260902213344 88 263 6.0 13.0 0.00 0.00 0.00 43 1024.6
20260902212336 88 262 6.0 13.0 0.00 0.00 0.00 43 1024.6
20260902211327 88 255 7.0 12.0 0.00 0.00 0.00 42 1024.8
20260902210337 88 309 4.0 12.0 0.00 0.00 0.00 42 1024.9
20260902205326 89 300 8.0 11.0 0.00 0.00 0.00 41 1024.9
20260902204335 89 288 6.0 11.0 0.00 0.00 0.00 40 1024.9
20260902203344 91 337 4.0 10.0 0.00 0.00 0.00 36 1025.1
20260902202348 92 263 2.0 10.0 0.00 0.00 0.00 34 1025.0
20260902201338 92 249 7.0 11.0 0.00 0.00 0.00 36 1025.0
20260902200348 92 345 4.0 11.0 0.00 0.00 0.00 37 1025.2
20260902195339 91 314 7.0 13.0 0.00 0.00 0.00 38 1025.5
20260902194335 93 229 5.0 11.0 0.00 0.00 0.00 37 1025.5
20260902193329 92 290 5.0 13.0 0.00 0.00 0.00 38 1025.6
20260902192345 91 291 7.0 13.0 0.00 0.00 0.00 41 1025.8
20260902191339 91 289 6.0 11.0 0.00 0.00 0.00 41 1026.0
20260902190415 90 311 3.0 12.0 0.00 0.00 0.00 42 1026.3
20260902185326 91 244 5.0 9.0 0.00 0.00 0.00 41 1026.5
20260902184343 91 350 6.0 12.0 0.00 0.00 0.00 40 1026.5
20260902183333 90 257 3.0 13.0 0.00 0.00 0.00 42 1026.7
20260902182350 89 25 2.0 10.0 0.00 0.00 0.00 42 1026.7
20260902181338 89 322 2.0 10.0 0.00 0.00 0.00 44 1026.9
20260902180345 90 338 4.0 10.0 0.00 0.00 0.00 43 1027.0
20260902175358 89 251 4.0 8.0 0.00 0.00 0.00 45 1027.1
20260902174328 88 315 2.0 5.0 0.00 0.00 0.00 46 1027.1
20260902173402 88 12 4.0 11.0 0.00 0.00 0.00 46 1027.2
20260902172328 88 263 3.0 9.0 0.00 0.00 0.00 47 1027.2
20260902171344 86 292 2.0 6.0 0.00 0.00 0.00 48 1027.2
20260902170332 87 309 2.0 9.0 0.00 0.00 0.00 50 1027.3
20260902165406 85 321 1.0 8.0 0.00 0.00 0.00 50 1027.3
20260902164330 86 283 5.0 8.0 0.00 0.00 0.00 49 1027.3
20260902163405 86 124 1.0 7.0 0.00 0.00 0.00 50 1027.3
20260902162338 85 217 2.0 5.0 0.00 0.00 0.00 50 1027.2
20260902161329 84 241 3.0 8.0 0.00 0.00 0.00 53 1027.3
20260902160335 84 187 3.0 6.0 0.00 0.00 0.00 53 1027.3
20260902155411 84 228 2.0 6.0 0.00 0.00 0.00 53 1027.2
20260902154342 83 168 3.0 7.0 0.00 0.00 0.00 54 1027.2
20260902153357 83 245 1.0 7.0 0.00 0.00 0.00 55 1027.3
20260902152329 82 224 3.0 7.0 0.00 0.00 0.00 56 1027.2
20260902151345 82 223 3.0 8.0 0.00 0.00 0.00 56 1027.3
20260902150332 82 227 4.0 9.0 0.00 0.00 0.00 56 1027.2
20260902145348 82 187 2.0 6.0 0.00 0.00 0.00 55 1027.1
20260902144341 82 148 2.0 3.0 0.00 0.00 0.00 58 1027.1
20260902143330 81 148 2.0 3.0 0.00 0.00 0.00 61 1027.1
20260902142346 80 148 0.0 2.0 0.00 0.00 0.00 62 1027.0
20260902141337 79 148 0.0 2.0 0.00 0.00 0.00 62 1027.0
20260902140412 79 148 0.0 1.0 0.00 0.00 0.00 64 1026.8
20260902135342 78 148 1.0 3.0 0.00 0.00 0.00 67 1026.7
20260902134419 77 148 1.0 3.0 0.00 0.00 0.00 69 1026.6
20260902134337 77 148 1.0 3.0 0.00 0.00 0.00 69 1026.6
20260902133351 76 148 2.0 3.0 0.00 0.00 0.00 69 1026.5
20260902132340 76 148 1.0 2.0 0.00 0.00 0.00 70 1026.5
20260902131337 75 148 0.0 0.0 0.00 0.00 0.00 70 1026.5
20260902130325 75 148 0.0 2.0 0.00 0.00 0.00 71 1026.4
20260902125344 75 148 0.0 0.0 0.00 0.00 0.00 70 1026.3
20260902124341 76 148 0.0 3.0 0.00 0.00 0.00 71 1026.4
20260902123335 76 148 1.0 2.0 0.00 0.00 0.00 70 1026.2
20260902122325 77 148 0.0 2.0 0.00 0.00 0.00 68 1026.1
20260902121343 77 148 1.0 5.0 0.00 0.00 0.00 66 1026.1
20260902120332 78 148 2.0 8.0 0.00 0.00 0.00 65 1026.1
20260902115325 77 168 5.0 6.0 0.00 0.00 0.00 66 1026.1
20260902114401 77 157 5.0 7.0 0.00 0.00 0.00 66 1026.1
20260902113336 77 185 6.0 9.0 0.00 0.00 0.00 65 1026.1
20260902112352 78 167 6.0 10.0 0.00 0.00 0.00 63 1026.1
20260902111326 77 185 6.0 8.0 0.00 0.00 0.00 66 1026.0
20260902110357 76 197 5.0 6.0 0.00 0.00 0.00 67 1026.0
20260902105349 76 173 5.0 9.0 0.00 0.00 0.00 67 1026.1
20260902104341 78 158 4.0 6.0 0.00 0.00 0.00 65 1026.1
20260902103336 78 158 4.0 6.0 0.00 0.00 0.00 64 1026.2
20260902102325 77 149 3.0 6.0 0.00 0.00 0.00 65 1026.3
20260902101345 77 149 3.0 7.0 0.00 0.00 0.00 66 1026.3
20260902100331 76 169 4.0 6.0 0.00 0.00 0.00 67 1026.3
20260902095346 77 156 5.0 6.0 0.00 0.00 0.00 66 1026.2
20260902094343 77 167 4.0 6.0 0.00 0.00 0.00 64 1026.2
20260902093331 76 157 5.0 8.0 0.00 0.00 0.00 68 1026.1
20260902092326 76 145 7.0 9.0 0.00 0.00 0.00 69 1026.1
20260902091344 76 177 4.0 6.0 0.00 0.00 0.00 68 1026.1
20260902090334 76 229 5.0 6.0 0.00 0.00 0.00 68 1026.1
20260902085325 78 250 4.0 8.0 0.00 0.00 0.00 63 1026.1
20260902084334 79 133 1.0 4.0 0.00 0.00 0.00 59 1025.8
20260902083351 78 134 2.0 4.0 0.00 0.00 0.00 61 1025.8
20260902082343 77 134 4.0 5.0 0.00 0.00 0.00 64 1025.8
20260902081336 78 198 2.0 5.0 0.00 0.00 0.00 62 1025.8
20260902080410 78 203 5.0 7.0 0.00 0.00 0.00 62 1025.8
20260902075339 79 204 5.0 7.0 0.00 0.00 0.00 61 1025.8
20260902074332 79 205 5.0 7.0 0.00 0.00 0.00 60 1025.9
20260902073351 79 194 5.0 7.0 0.00 0.00 0.00 59 1025.8
20260902072347 80 194 6.0 8.0 0.00 0.00 0.00 57 1025.8
20260902071342 80 195 6.0 8.0 0.00 0.00 0.00 56 1025.8
20260902070329 80 184 5.0 8.0 0.00 0.00 0.00 56 1025.8
20260902065335 80 196 6.0 9.0 0.00 0.00 0.00 54 1025.8
20260902064327 79 174 6.0 9.0 0.00 0.00 0.00 57 1025.7
20260902063344 79 192 6.0 9.0 0.00 0.00 0.00 61 1025.7
20260902062334 81 196 5.0 7.0 0.00 0.00 0.00 54 1025.7
20260902061331 81 174 5.0 7.0 0.00 0.00 0.00 53 1025.8
20260902060340 82 186 5.0 6.0 0.00 0.00 0.00 53 1025.7
20260902055356 82 172 5.0 6.0 0.00 0.00 0.00 53 1025.7
20260902054330 82 171 5.0 6.0 0.00 0.00 0.00 52 1025.8
20260902053350 82 171 4.0 5.0 0.00 0.00 0.00 52 1025.8
20260902052341 82 169 4.0 6.0 0.00 0.00 0.00 51 1025.9
20260902051334 83 230 3.0 4.0 0.00 0.00 0.00 50 1026.0
20260902050329 83 230 2.0 4.0 0.00 0.00 0.00 50 1025.9
20260902045400 83 230 3.0 4.0 0.00 0.00 0.00 49 1026.0
20260902044333 83 262 3.0 4.0 0.00 0.00 0.00 49 1026.1
20260902043350 84 262 2.0 3.0 0.00 0.00 0.00 48 1025.9
20260902042343 84 262 2.0 3.0 0.00 0.00 0.00 48 1025.8
20260902041334 84 262 2.0 3.0 0.00 0.00 0.00 48 1025.8